Weather History for Fort Benning, GA

Change the Weather History Date:

Tuesday, May 8, 2012

  Actual Average Record
Temperature  
Mean Temperature 72 °F -  
Max Temperature 85 °F 81 °F 91 °F (2002)
Min Temperature 61 °F 55 °F 39 °F (2007)
Cooling Degree Days 8    
Growing Degree Days 22 (Base 50)    
Moisture  
Dew Point 68 °F    
Average Humidity 86    
Maximum Humidity 100    
Minimum Humidity 61    
Precipitation  
Precipitation 0.11 in - - ()
Sea Level Pressure  
Sea Level Pressure 29.89 in    
Wind  
Wind Speed 4 mph (SSE)    
Max Wind Speed 17 mph    
Max Gust Speed 23 mph    
Visibility 7 miles    
Events Rain , Thunderstorm    
Averages and records for this station are not official NWS values.
T = Trace of Precipitation, MM = Missing Value Source: NWS Daily Summary

Daily Weather History Graph

Daily Weather History Graph

Search for Another Location

Airport:

Trip Planner

Search our weather history database for the weather conditions in past years. The results will help you decide how hot, cold, wet, or windy it might be!

Date:

Astronomy

May. 08, 2012 Rise Set
Actual Time 6:46 AM EDT 8:26 PM EDT
Civil Twilight 6:20 AM EDT 8:53 PM EDT
Nautical Twilight 5:48 AM EDT 9:25 PM EDT
Astronomical Twilight 5:14 AM EDT 9:58 PM EDT
Moon 11:31 PM EDT (5/8) 8:59 AM EDT (5/8)
Length of Visible Light 14h 32m
Length of Day
13h 39m
Waning Gibbous, 91% of the Moon is Illuminated
May 8
Waning Gibbous
May 12
Last Quarter
May 20
New
May 28
First Quarter
Jun 4
Full

Hourly Weather History & Observations

Time (EDT) Temp. Heat Index Dew Point Humidity Pressure Visibility Wind Dir Wind Speed Gust Speed Precip Events Conditions
12:55 AM 64.9 °F - 61.9 °F 90% 29.93 in 10.0 mi Calm Calm - N/A   Clear
1:55 AM 63.9 °F - 61.5 °F 92% 29.91 in 10.0 mi Calm Calm - N/A   Clear
2:55 AM 62.2 °F - 61.3 °F 97% 29.90 in 10.0 mi Calm Calm - N/A   Clear
3:55 AM 61.9 °F - 61.5 °F 99% 29.91 in 10.0 mi Calm Calm - N/A   Overcast
4:55 AM 62.2 °F - 61.7 °F 98% 29.91 in 10.0 mi Calm Calm - N/A   Overcast
5:55 AM 63.9 °F - 62.8 °F 96% 29.92 in 10.0 mi Calm Calm - N/A   Overcast
6:55 AM 63.9 °F - 63.1 °F 97% 29.92 in 10.0 mi Calm Calm - N/A   Overcast
7:41 AM 66.2 °F - 66.2 °F 100% 29.95 in 10.0 mi North 6.9 mph - N/A   Overcast
7:55 AM 68.0 °F - 65.8 °F 93% 29.95 in 10.0 mi North 8.1 mph - N/A   Overcast
7:58 AM 68.0 °F - 66.2 °F 94% 29.95 in 10.0 mi North 5.8 mph - N/A   Overcast
8:54 AM 69.8 °F - 66.2 °F 88% 29.96 in 10.0 mi ENE 6.9 mph - N/A Rain Light Rain
8:55 AM 69.3 °F - 66.0 °F 89% 29.96 in 10.0 mi East 8.1 mph - 0.00 in Rain Light Rain
9:05 AM 69.8 °F - 66.2 °F 88% 29.95 in 10.0 mi ESE 6.9 mph - N/A Rain Light Rain
9:16 AM 69.8 °F - 66.2 °F 88% 29.95 in 10.0 mi SE 4.6 mph - N/A Rain Light Rain
9:39 AM 69.8 °F - 68.0 °F 94% 29.95 in 10.0 mi SE 3.5 mph - N/A   Mostly Cloudy
9:55 AM 70.3 °F - 68.4 °F 93% 29.95 in 10.0 mi East 4.6 mph - 0.03 in   Mostly Cloudy
10:55 AM 72.0 °F - 68.7 °F 89% 29.93 in 10.0 mi East 3.5 mph - N/A   Mostly Cloudy
11:55 AM 78.1 °F - 68.4 °F 72% 29.93 in 6.0 mi Calm Calm - N/A   Haze
12:55 PM 82.2 °F 85.5 °F 69.1 °F 64% 29.91 in 10.0 mi ESE 6.9 mph - N/A   Clear
1:55 PM 83.1 °F 86.6 °F 69.1 °F 62% 29.89 in 10.0 mi Variable 3.5 mph - N/A   Mostly Cloudy
2:49 PM 84.2 °F 88.4 °F 69.8 °F 62% 29.88 in 10.0 mi NW 4.6 mph - N/A Rain Rain
2:55 PM 82.8 °F 87.4 °F 71.2 °F 68% 29.87 in 10.0 mi North 6.9 mph - 0.00 in Rain Light Rain
3:11 PM 80.6 °F 84.6 °F 71.6 °F 74% 29.87 in 10.0 mi North 4.6 mph - N/A   Overcast
3:14 PM 80.6 °F 84.6 °F 71.6 °F 74% 29.87 in 10.0 mi North 10.4 mph - N/A   Light Drizzle
3:16 PM 80.6 °F 84.6 °F 71.6 °F 74% 29.87 in 10.0 mi North 10.4 mph - N/A Rain , Thunderstorm Light Thunderstorms and Rain
3:25 PM 80.6 °F 84.6 °F 71.6 °F 74% 29.87 in 10.0 mi North 6.9 mph - N/A Thunderstorm Thunderstorm
3:31 PM 80.6 °F 84.6 °F 71.6 °F 74% 29.87 in 10.0 mi ENE 3.5 mph - N/A Thunderstorm Mostly Cloudy
3:34 PM 80.6 °F 83.9 °F 69.8 °F 70% 29.88 in 4.0 mi Calm Calm - N/A Thunderstorm Haze
3:36 PM 78.8 °F - 69.8 °F 74% 29.88 in 3.0 mi Variable 4.6 mph - N/A Rain Light Rain
3:39 PM 78.8 °F - 68.0 °F 69% 29.88 in 2.5 mi South 4.6 mph - N/A Rain Light Rain
3:44 PM 77.0 °F - 68.0 °F 74% 29.87 in 3.0 mi SSE 9.2 mph - N/A Rain Rain
3:55 PM 76.1 °F - 68.0 °F 76% 29.86 in 6.0 mi SSE 5.8 mph - 0.02 in Rain Light Rain
4:09 PM 77.0 °F - 69.8 °F 78% 29.86 in 10.0 mi SSE 3.5 mph - N/A   Scattered Clouds
4:55 PM 84.7 °F 89.1 °F 70.0 °F 61% 29.83 in 10.0 mi Calm Calm - 0.00 in   Clear
5:55 PM 80.4 °F 83.0 °F 67.6 °F 65% 29.85 in 10.0 mi South 17.3 mph 23.0 mph N/A   Partly Cloudy
6:15 PM 77.0 °F - 66.2 °F 69% 29.84 in 10.0 mi SSW 11.5 mph 19.6 mph N/A Thunderstorm Thunderstorm
6:26 PM 75.2 °F - 66.2 °F 73% 29.85 in 3.0 mi SW 9.2 mph - N/A Thunderstorm Unknown
6:28 PM 75.2 °F - 66.2 °F 73% 29.85 in 2.5 mi SSW 8.1 mph - N/A Rain , Thunderstorm Thunderstorms and Rain
6:30 PM 75.2 °F - 66.2 °F 73% 29.85 in 2.5 mi SSW 9.2 mph - N/A Rain , Thunderstorm Rain
6:34 PM 73.4 °F - 68.0 °F 83% 29.85 in 3.0 mi WSW 9.2 mph - N/A Rain , Thunderstorm Rain
6:39 PM 73.4 °F - 68.0 °F 83% 29.86 in 2.5 mi West 10.4 mph - N/A Rain , Thunderstorm Light Rain
6:41 PM 73.4 °F - 68.0 °F 83% 29.86 in 1.8 mi WNW 9.2 mph - N/A Rain , Thunderstorm Light Rain
6:43 PM 73.4 °F - 68.0 °F 83% 29.86 in 1.5 mi West 8.1 mph - N/A Rain , Thunderstorm Light Rain
6:48 PM 71.6 °F - 68.0 °F 88% 29.85 in 1.8 mi WSW 5.8 mph - N/A Rain , Thunderstorm Light Rain
6:49 PM 71.6 °F - 68.0 °F 88% 29.85 in 2.0 mi WSW 5.8 mph - N/A Rain , Thunderstorm Rain
6:50 PM 71.6 °F - 68.0 °F 88% 29.85 in 3.0 mi SW 5.8 mph - N/A Rain , Thunderstorm Heavy Rain
6:55 PM 72.0 °F - 68.9 °F 90% 29.85 in 4.0 mi SSW 3.5 mph - 0.04 in Rain , Thunderstorm Light Rain
7:14 PM 71.6 °F - 68.0 °F 88% 29.85 in 10.0 mi South 3.5 mph - N/A   Overcast
7:19 PM 71.6 °F - 68.0 °F 88% 29.85 in 10.0 mi Calm Calm - N/A   Light Drizzle
7:29 PM 71.6 °F - 69.8 °F 94% 29.84 in 10.0 mi South 3.5 mph - N/A   Overcast
7:55 PM 72.0 °F - 69.3 °F 91% 29.85 in 10.0 mi SSE 4.6 mph - 0.02 in   Overcast
8:55 PM 69.8 °F - 67.8 °F 93% 29.87 in 10.0 mi Calm Calm - N/A   Mostly Cloudy
9:55 PM 67.8 °F - 67.5 °F 99% 29.87 in 6.0 mi WSW 3.5 mph - N/A   Scattered Clouds
9:57 PM 68.0 °F - 68.0 °F 100% 29.87 in 6.0 mi Calm Calm - N/A   Scattered Clouds
10:11 PM 68.0 °F - 68.0 °F 100% 29.88 in 4.0 mi Calm Calm - N/A   Mostly Cloudy
10:14 PM 68.0 °F - 68.0 °F 100% 29.88 in 4.0 mi Calm Calm - N/A   Mostly Cloudy
10:27 PM 68.0 °F - 68.0 °F 100% 29.88 in 2.5 mi SE 3.5 mph - N/A   Overcast
10:28 PM 68.0 °F - 68.0 °F 100% 29.88 in 2.5 mi ESE 3.5 mph - N/A   Overcast
10:30 PM 68.0 °F - 68.0 °F 100% 29.88 in 2.5 mi Calm Calm - N/A   Overcast
10:31 PM 68.0 °F - 68.0 °F 100% 29.88 in 3.0 mi Calm Calm - N/A   Overcast
10:36 PM 68.0 °F - 68.0 °F 100% 29.88 in 5.0 mi Calm Calm - N/A   Overcast
10:55 PM 67.8 °F - 67.6 °F 99% 29.88 in 4.0 mi SE 5.8 mph - N/A   Overcast
11:07 PM 68.0 °F - 68.0 °F 100% 29.88 in 8.0 mi Calm Calm - N/A   Overcast
11:55 PM 67.6 °F - 67.3 °F 99% 29.89 in 10.0 mi Calm Calm - N/A   Overcast